This demonstration page uses our WeatherBlox Daily Observations layout. Learn more.

Left ArrowRight Arrow

44.89941, -97.11507

Hourly Observations for June 12, 2016

Temp ( °F °C ) Dew Point ( °F °C ) Humidity (%) Winds ( mph kmh ) Pressure ( in mb ) Visibility ( mi km ) Precip ( " mm )
12:53 am 00:53 Clear 78 25.6 55 12.8 45 45 ESE 15 24 29.91 1013 10 16 0.00 0.00
1:53 am 01:53 Clear 76 24.4 54 12.2 47 47 ESE 9 15 29.91 1013 10 16 0.00 0.00
2:53 am 02:53 Clear 74 23.3 55 12.8 52 52 ESE 9 15 29.90 1013 10 16 0.00 0.00
3:53 am 03:53 Clear 73 22.8 57 13.9 57 57 ESE 8 13 29.91 1013 10 16 0.00 0.00
4:53 am 04:53 Clear 72 22.2 59 15 64 64 ESE 9 15 29.90 1013 10 16 0.00 0.00
5:53 am 05:53 Sunny 71 21.7 60 15.6 68 68 ESE 8 13 29.90 1013 10 16 0.00 0.00
6:53 am 06:53 Sunny 71 21.7 61 16.1 71 71 ESE 6 9 29.90 1013 10 16 0.00 0.00
7:53 am 07:53 Sunny 76 24.4 64 17.8 67 67 ESE 8 13 29.91 1013 10 16 0.00 0.00
8:53 am 08:53 Sunny 83 28.3 66 18.9 57 57 SSE 10 17 29.90 1012 10 16 0.00 0.00
9:53 am 09:53 Sunny 85 29.4 67 19.4 55 55 SSE 13 20 29.89 1012 10 16 0.00 0.00
10:53 am 10:53 Sunny 87 30.6 69 20.6 55 55 S 12 19 29.88 1012 10 16 0.00 0.00
11:53 am 11:53 Sunny 90 32.2 69 20.6 50 50 S 17 28 29.86 1011 10 16 0.00 0.00
12:53 pm 12:53 Sunny 93 33.9 68 20 44 44 S 23 37 29.86 1011 10 16 0.00 0.00
1:53 pm 13:53 Mostly Cloudy 93 33.9 67 19.4 42 42 SW 22 35 29.86 1011 10 16 0.00 0.00
2:19 pm 14:19 Partly Cloudy with Thunderstorms 93 33.9 68 20 44 44 WSW 21 33 29.80 1009 10 16 0.00 0.00
2:42 pm 14:42 Sunny with Nearby Thunderstorms 92 33.3 69 20.6 47 47 WSW 20 31 29.80 1009 10 16 0.00 0.00
2:53 pm 14:53 Sunny 91 32.8 70 21.1 50 50 WSW 20 31 29.85 1011 10 16 0.00 0.00
3:53 pm 15:53 Sunny 91 32.8 70 21.1 50 50 SW 13 20 29.85 1011 10 16 0.00 0.00
4:53 pm 16:53 Mostly Sunny 90 32.2 67 19.4 47 47 WSW 17 28 29.85 1011 10 16 0.00 0.00
5:31 pm 17:31 Sunny with Nearby Thunderstorms 88 31.1 69 20.6 54 54 W 15 24 29.80 1009 10 16 0.00 0.00
5:53 pm 17:53 Partly Cloudy with Nearby Thunderstorms 85 29.4 68 20 57 57 WSW 9 15 29.88 1012 10 16 0.00 0.00
6:07 pm 18:07 Mostly Sunny 85 29.4 69 20.6 59 59 SW 12 19 29.85 1011 10 16 0.00 0.00
6:33 pm 18:33 Mostly Cloudy with Nearby Thunderstorms 81 27.2 71 21.7 72 72 W 6 9 29.85 1011 10 16 0.00 0.03
6:42 pm 18:42 Cloudy with Light Rain 80 26.7 71 21.7 74 74 W 6 9 29.85 1011 3 4 0.06 1.52
6:47 pm 18:47 Cloudy with Nearby Thunderstorms 81 27 72 22 74 74 W 5 7 29.85 1011 6 10 0.06 1.52
6:53 pm 18:53 Cloudy with Nearby Thunderstorms 79 26.1 71 21.7 77 77 WNW 5 7 29.91 1013 7 11 0.07 1.78
7:03 pm 19:03 Cloudy with Strong Thunderstorms 77 25 71 21.7 82 82 W 3 6 29.85 1011 3 5 0.03 0.76
7:18 pm 19:18 Cloudy with Nearby Thunderstorms 78 25.6 70 21.1 76 76 W 13 20 29.85 1011 5 8 0.07 1.78
7:22 pm 19:22 Cloudy with Nearby Thunderstorms 76 24.4 68 20 77 77 SW 13 20 29.88 1012 2 3 0.14 3.56
7:29 pm 19:29 Cloudy with Light Rain 76 24.4 67 19.4 74 74 WSW 6 9 29.88 1012 2 3 0.15 3.81
7:37 pm 19:37 Mostly Cloudy 75 23.9 69 20.6 82 82 W 7 11 29.88 1012 10 16 0.15 3.81
7:53 pm 19:53 Mostly Cloudy 76 24.4 69 20.6 79 79 WNW 8 13 29.90 1013 10 16 0.15 3.81
8:18 pm 20:18 Partly Cloudy with Nearby Thunderstorms 78 25.6 69 20.6 74 74 WNW 13 20 29.85 1011 10 16 0.00 0.00
8:50 pm 20:50 Mostly Cloudy with Light Rain 75 24 66 19 74 74 W 5 7 29.88 1012 10 16 0.00 0.03
8:53 pm 20:53 Mostly Cloudy with Light Rain 75 23.9 66 18.9 74 74 W 5 7 29.89 1012 10 16 0.00 0.03
9:53 pm 21:53 Clear 74 23.3 68 20 82 82 NW 7 11 29.89 1012 10 16 0.00 0.03
10:53 pm 22:53 Clear 75 23.9 66 18.9 74 74 NNW 8 13 29.91 1013 10 16 0.00 0.00
11:53 pm 23:53 Mostly Clear 72 22.2 64 17.8 76 76 NNW 7 11 29.94 1014 10 16 0.00 0.00

Powered by AerisWeather